Location: Gull Harbor
(47.1000°N, 122.9000°W)
Time: 05:29:57
(UTC-08:00)

ISS - Visible Passes

Search period start: 25 February 2018 00:00
Search period end: 07 March 2018 00:00
Orbit: 402 x 407 km, 51.6° (Epoch: 25 February)

Date Brightness Start Highest point End Pass type
(mag) Time Alt. Az. Time Alt. Az. Time Alt. Az.
25 Feb -0.5 05:58:57 10° SE 05:59:35 10° SE 06:00:13 10° ESE visible
27 Feb -1.4 05:48:38 10° SSW 05:51:13 22° SE 05:53:48 10° E visible
28 Feb -0.9 04:57:36 10° SSE 04:59:10 13° SE 05:00:43 10° ESE visible
01 Mar -2.8 05:40:08 12° SW 05:42:55 43° SE 05:46:04 10° ENE visible
02 Mar -2.1 04:50:14 25° SSE 04:50:44 26° SE 04:53:32 10° E visible
03 Mar -0.6 04:00:11 12° ESE 04:00:11 12° ESE 04:00:40 10° E visible
03 Mar -3.9 05:32:51 24° WSW 05:34:41 85° SSE 05:37:59 10° ENE visible
04 Mar -3.1 04:42:42 49° SE 04:42:42 49° SE 04:45:37 10° ENE visible
04 Mar -3.2 06:15:47 10° W 06:18:57 44° NNW 06:22:07 10° ENE visible
05 Mar -0.6 03:52:29 14° E 03:52:29 14° E 03:53:07 10° E visible
05 Mar -3.6 05:25:08 30° W 05:26:31 57° NNW 05:29:46 10° ENE visible
06 Mar -3.1 04:34:50 52° ENE 04:34:50 52° ENE 04:37:25 10° ENE visible
06 Mar -2.8 06:07:48 10° WNW 06:10:53 36° N 06:13:57 10° ENE visible
